[[{"header":{"parameterUnit":"m.s-1","parameterCategory":1,"la1":30.2991,"la2":30.254,"lo1":-89.0895,"lo2":-89.0444,"dy":0.0017,"dx":0.0017,"nx":28,"ny":28,"refTime":"2024-06-08T09:00:00:Z","depth":0,"parameterNumber":2,"parameterNumberName":"U-component_of_WINDS"},"data":[0,0,0,0,0,0,0,0,0,0,0,0,0,0,0,0,0,0,0,0,0,0,0,0,0,0,0,0,0,0,0,0,0,0,0,0,0,0,0,0,0,0,0,0,0,0,0,0,0,0,0,0,0,0,0,0,0,0,-2.4143,-2.4143,0,-2.4141,-2.4141,-2.4141,-2.4016,-2.4012,-2.4009,-2.4006,-2.4008,-2.4011,-2.4014,0,0,0,0,0,0,0,0,0,0,0,0,0,-2.4042,-2.4045,-2.4143,-2.4143,-2.4143,-2.4141,-2.4141,-2.4141,-2.4016,-2.4012,-2.4008,-2.4004,-2.4007,-2.401,-2.4014,0,0,0,0,0,0,0,0,0,0,0,0,0,-2.4068,-2.4046,-2.4143,-2.4081,-2.4075,-2.4141,-2.4141,-2.4141,-2.4017,-2.4012,-2.4007,-2.4003,-2.4005,-2.401,-2.4014,-2.4141,0,0,-2.4029,-2.4031,0,0,0,0,0,0,0,0,-2.4067,-2.4072,-2.409,-2.4085,-2.4079,-2.4073,-2.4106,-2.4141,-2.4018,-2.4039,-2.4006,-2.4,-2.4034,-2.4036,-2.4046,-2.4142,-2.4142,-2.4029,-2.4032,-2.4034,-2.4035,0,0,0,0,0,0,0,-2.4065,-2.4071,-2.4142,-2.409,-2.4084,-2.4053,-2.4052,-2.4112,-2.4064,-2.4037,-2.4028,-2.4029,-2.403,-2.4042,-2.4045,-2.4142,-2.4029,-2.4033,-2.4036,-2.4038,-2.434,-2.4345,0,0,0,0,0,0,-2.4072,-2.4071,-2.4143,-2.4142,-2.406,-2.4059,-2.4057,-2.408,-2.4063,-2.4056,-2.4033,-2.4023,-2.4037,-2.404,-2.4045,-2.4192,-2.4034,-2.4038,-2.4041,-2.4335,-2.4341,-2.4347,0,0,0,0,0,0,-2.407,-2.4079,-2.4143,-2.4104,-2.411,-2.4066,-2.4093,-2.4083,-2.4095,-2.406,-2.4051,-2.4055,-2.4033,-2.4038,-2.4118,-2.419,-2.404,-2.4045,-2.4328,-2.4337,-2.4344,-2.4488,0,0,0,0,0,0,-2.4067,-2.4079,-2.4127,-2.4106,-2.4112,-2.4216,-2.4098,-2.4086,-2.4103,-2.409,-2.4078,-2.4071,-2.4029,-2.4112,-2.4123,-2.4194,-2.4048,-2.4322,-2.4332,-2.4341,-2.4477,-2.45,-2.452,0,0,0,0,0,-2.4064,-2.4169,-2.413,-2.4139,-2.4171,-2.422,-2.4224,-2.4172,-2.4109,-2.4157,-2.4134,-2.4072,-2.418,-2.4121,-2.4132,-2.4206,-2.4317,-2.4329,-2.4341,-2.4467,-2.4495,-2.4519,0,0,0,0,0,0,-2.4201,-2.4165,-2.4121,-2.4222,-2.4225,-2.4199,-2.4257,-2.4204,-2.4226,-2.4213,-2.4149,-2.4148,-2.4237,-2.4229,-2.4164,-2.4327,-2.4237,-2.4252,-2.433,-2.4356,-2.4378,-2.4379,-2.4052,0,0,0,0,0,-2.4243,-2.4285,-2.4251,-2.4343,-2.4346,-2.4302,-2.4322,-2.4281,-2.4282,-2.4283,-2.4267,-2.4271,-2.4306,-2.433,-2.4361,-2.4474,-2.447,-2.453,-2.4552,-2.457,-2.4584,-2.4643,-2.4669,-2.4385,-2.4385,-2.4385,0,0,-2.433,-2.4315,-2.4346,-2.437,-2.4368,-2.4413,-2.4304,-2.4357,-2.4391,-2.4292,-2.4365,-2.4353,-2.4354,-2.4451,-2.4493,-2.4447,-2.4661,-2.4585,-2.4599,-2.4604,-2.4658,-2.4685,-2.4709,-2.4393,-2.4392,-2.4391,0,0,-2.4512,-2.4505,-2.458,-2.4579,-2.4576,-2.4545,-2.4563,-2.4545,-2.4532,-2.4605,-2.4531,-2.457,-2.4632,-2.4635,-2.4645,-2.4825,-2.4769,-2.4837,-2.4951,-2.5009,-2.5031,-2.5051,-2.5116,-2.514,-2.4851,-2.4851,-2.4851,0,-2.4622,-2.4686,-2.4626,-2.4684,-2.4697,-2.4607,-2.4683,-2.4685,-2.4693,-2.4705,-2.4652,-2.4726,-2.4721,-2.4817,-2.4861,-2.4871,-2.4891,-2.4839,-2.5032,-2.5052,-2.5069,-2.513,-2.5155,-2.4859,-2.4858,-2.4858,-2.4857,0,-2.4821,-2.4867,-2.4928,-2.4936,-2.4955,-2.5022,-2.4973,-2.5,-2.4958,-2.4933,-2.5007,-2.4996,-2.5022,-2.5042,-2.5002,-2.5132,-2.5104,-2.5043,-2.4952,-2.5105,-2.5162,-2.5185,-2.4871,-2.4868,-2.4866,-2.4864,0,0,-2.5092,-2.5063,-2.5087,-2.5089,-2.5077,-2.5112,-2.5175,-2.5198,-2.5223,-2.5231,-2.5282,-2.5335,-2.5278,-2.5289,-2.5248,-2.5299,-2.5443,-2.5232,-2.5231,-2.5272,-2.5587,-2.5633,-2.5662,-2.5404,-2.5409,-2.5412,-2.5587,0,-2.5269,-2.5373,-2.532,-2.5431,-2.5473,-2.5386,-2.5441,-2.544,-2.5418,-2.5451,-2.5426,-2.5465,-2.5386,-2.5392,-2.5439,-2.5416,-2.5506,-2.5402,-2.5453,-2.5456,-2.5457,-2.5691,-2.5741,-2.5906,-2.5608,-2.5612,-2.5615,0,-2.549,-2.5504,-2.5619,-2.5598,-2.5614,-2.5664,-2.568,-2.5712,-2.571,-2.569,-2.5701,-2.5648,-2.5708,-2.5616,-2.5698,-2.5629,-2.5646,-2.5638,-2.5643,-2.5647,-2.5546,-2.5703,-2.5958,-2.5983,-2.5649,-2.5646,-2.5644,0,-2.5677,-2.5725,-2.58,-2.5804,-2.5782,-2.5818,-2.5811,-2.5803,-2.582,-2.5835,-2.5845,-2.5868,-2.5881,-2.5899,-2.5854,-2.5791,-2.5943,-2.5847,-2.5929,-2.593,-2.5966,-2.5965,-2.6229,-2.5976,-2.5975,-2.5975,-2.5974,0,-2.588,-2.5955,-2.5883,-2.593,-2.601,-2.5948,-2.6029,-2.6012,-2.6006,-2.6048,-2.5974,-2.6016,-2.5952,-2.5987,-2.5951,-2.6025,-2.6031,-2.6017,-2.6007,-2.6025,-2.6027,-2.6037,-2.6024,-2.5981,-2.598,-2.5979,-2.5977,0,-2.6104,-2.6059,-2.6135,-2.6106,-2.6101,-2.6161,-2.6137,-2.6179,-2.615,-2.6204,-2.6214,-2.617,-2.6207,-2.6162,-2.6196,-2.6172,-2.6272,-2.6245,-2.6273,-2.6266,-2.6351,-2.6344,-2.6632,-2.6667,-2.639,-2.6393,-2.6395,0,-2.6238,-2.6292,-2.6269,-2.629,-2.6287,-2.6323,-2.634,-2.628,-2.63,-2.63,-2.6342,-2.6373,-2.6394,-2.6458,-2.643,-2.6455,-2.6428,-2.6527,-2.6432,-2.6447,-2.6431,-2.6428,-2.6434,-2.6547,-2.6551,-2.6553,-2.6556,0,-2.648,-2.6455,-2.648,-2.6498,-2.6519,-2.6531,-2.6537,-2.656,-2.6497,-2.6524,-2.656,-2.6576,-2.6609,-2.6641,-2.6658,-2.6651,-2.6594,-2.6585,-2.6606,-2.6625,-2.664,-2.6634,-2.6328,-2.658,-2.6577,-2.6575,-2.6574,-2.6573,-2.6663,-2.6707,-2.6697,-2.6728,-2.6725,-2.6732,-2.677,-2.6745,-2.6774,-2.6795,-2.6758,-2.6804,-2.6798,-2.6815,-2.6814,-2.6849,-2.6807,-2.6837,-2.6844,-2.6853,-2.6866,-2.6633,-2.6852,-2.6851,-2.6851,-2.685,-2.685,0,-2.6903,-2.6891,-2.6919,-2.6929,-2.6953,-2.6894,-2.6898,-2.6922,-2.6963,-2.6962,-2.6983,-2.7025,-2.7054,-2.7027,-2.7052,-2.7085,-2.706,-2.7094,-2.7092,-2.7091,-2.6902,-2.6883,-2.7114,-2.7114,-2.7114,-2.7114,-2.7114,-2.7114,-2.703,-2.7101,-2.7074,-2.7143,-2.7131,-2.7174,-2.7181,-2.7187,-2.7185,-2.7234,-2.7258,-2.7239,-2.7228,-2.725,-2.7275,-2.7266,-2.7279,-2.7323,-2.7306,-2.713,-2.7104,-2.708,-2.7061,-2.7326,-2.7326,-2.7491,-2.7493,-2.7494]},{"header":{"parameterUnit":"m.s-1","parameterCategory":1,"la1":30.2991,"la2":30.254,"lo1":-89.0895,"lo2":-89.0444,"dy":0.0017,"dx":0.0017,"nx":28,"ny":28,"refTime":"2024-06-08T09:00:00:Z","depth":0,"parameterNumber":3,"parameterNumberName":"V-component_of_WINDS"},"data":[0,0,0,0,0,0,0,0,0,0,0,0,0,0,0,0,0,0,0,0,0,0,0,0,0,0,0,0,0,0,0,0,0,0,0,0,0,0,0,0,0,0,0,0,0,0,0,0,0,0,0,0,0,0,0,0,0,0,-2.9837,-2.9837,0,-2.9876,-2.9876,-2.9876,-2.9854,-2.9852,-2.9851,-2.985,-2.9888,-2.989,-2.9892,0,0,0,0,0,0,0,0,0,0,0,0,0,-2.974,-2.9742,-2.9837,-2.9837,-2.9838,-2.9875,-2.9876,-2.9877,-2.9854,-2.9852,-2.9851,-2.985,-2.9887,-2.9889,-2.9892,0,0,0,0,0,0,0,0,0,0,0,0,0,-2.9781,-2.9743,-2.9837,-2.9831,-2.9831,-2.9875,-2.9876,-2.9877,-2.9854,-2.9852,-2.9851,-2.9849,-2.9886,-2.9889,-2.9892,-2.9943,0,0,-2.9901,-2.9903,0,0,0,0,0,0,0,0,-2.9779,-2.9784,-2.9832,-2.9832,-2.9832,-2.9858,-2.9855,-2.9899,-2.9854,-2.9845,-2.985,-2.9848,-2.9879,-2.9882,-2.9893,-2.9945,-2.9947,-2.9902,-2.9903,-2.9905,-2.9906,0,0,0,0,0,0,0,-2.9776,-2.9783,-2.9852,-2.9832,-2.9832,-2.9826,-2.9829,-2.9864,-2.9871,-2.9846,-2.9844,-2.9849,-2.9879,-2.989,-2.9894,-2.9947,-2.9901,-2.9904,-2.9906,-2.9907,-3.0041,-3.0042,0,0,0,0,0,0,-2.9774,-2.978,-2.9851,-2.9853,-2.9801,-2.9829,-2.9833,-2.9851,-2.987,-2.9872,-2.9851,-2.9848,-2.9886,-2.989,-2.9895,-2.9955,-2.9905,-2.9907,-2.9909,-3.0039,-3.0041,-3.0043,0,0,0,0,0,0,-2.9772,-2.978,-2.9849,-2.9816,-2.9825,-2.9832,-2.9853,-2.9853,-2.9865,-2.9874,-2.9875,-2.9862,-2.9885,-2.9891,-2.9931,-2.9956,-2.9909,-2.9912,-3.0037,-3.004,-3.0042,-3.0075,0,0,0,0,0,0,-2.9769,-2.978,-2.98,-2.9817,-2.9827,-2.9886,-2.9854,-2.9855,-2.987,-2.9867,-2.9884,-2.9886,-2.9884,-2.9927,-2.9934,-2.9959,-2.9914,-3.0035,-3.0038,-3.0041,-3.0072,-3.0079,-3.0084,0,0,0,0,0,-2.9766,-2.9808,-2.9802,-2.981,-2.9853,-2.9887,-2.9893,-2.9891,-2.9872,-2.9892,-2.9898,-2.9885,-2.9952,-2.9931,-2.9939,-2.9965,-3.0033,-3.0037,-3.0041,-3.0069,-3.0077,-3.0084,0,0,0,0,0,0,-2.9794,-2.981,-2.9803,-2.9853,-2.9869,-2.9884,-2.9909,-2.99,-2.9921,-2.9917,-2.9913,-2.9917,-2.9959,-2.9966,-2.9943,-3.0015,-2.9989,-2.9995,-3.0008,-3.0016,-3.0022,-3.0019,-2.9916,0,0,0,0,0,-2.9806,-2.9834,-2.9846,-2.9889,-2.9897,-2.9902,-2.9917,-2.9914,-2.993,-2.9937,-2.9945,-2.9961,-2.9985,-3.0001,-3.0024,-3.0073,-3.0075,-3.0095,-3.0101,-3.0106,-3.0111,-3.0135,-3.0143,-3.0056,-3.0056,-3.0056,0,0,-2.9831,-2.9843,-2.9861,-2.9895,-2.9907,-2.9934,-2.9908,-2.9938,-2.9958,-2.9941,-2.9979,-2.9986,-3.0003,-3.0047,-3.0067,-3.0055,-3.0135,-3.0111,-3.0115,-3.0117,-3.014,-3.0148,-3.0155,-3.0058,-3.0058,-3.0057,0,0,-2.989,-2.9903,-2.9939,-2.9951,-2.997,-2.9972,-2.9981,-2.9997,-3.0001,-3.0039,-3.0026,-3.0049,-3.0092,-3.0104,-3.0115,-3.0177,-3.0166,-3.0185,-3.0217,-3.024,-3.0247,-3.0253,-3.0273,-3.0281,-3.019,-3.019,-3.019,0,-2.9918,-2.996,-2.9958,-2.9989,-3.0003,-2.9989,-3.0024,-3.0036,-3.0061,-3.0071,-3.0057,-3.0108,-3.0119,-3.0165,-3.018,-3.019,-3.0198,-3.0182,-3.0247,-3.0253,-3.0258,-3.0277,-3.0285,-3.0192,-3.0192,-3.0191,-3.0191,0,-2.9993,-3.0022,-3.0048,-3.0073,-3.009,-3.0123,-3.0124,-3.0142,-3.0137,-3.014,-3.0178,-3.019,-3.0214,-3.0225,-3.0221,-3.027,-3.0261,-3.0247,-3.0221,-3.0269,-3.0286,-3.0294,-3.0195,-3.0194,-3.0193,-3.0193,0,0,-3.0071,-3.0093,-3.0102,-3.0112,-3.0131,-3.0153,-3.0185,-3.0208,-3.0222,-3.024,-3.0265,-3.0301,-3.0287,-3.03,-3.0297,-3.0318,-3.0363,-3.0301,-3.0301,-3.031,-3.0415,-3.0424,-3.0433,-3.0356,-3.0358,-3.0359,-3.0413,0,-3.013,-3.0185,-3.0183,-3.0234,-3.0259,-3.0246,-3.0273,-3.0287,-3.0291,-3.0312,-3.0316,-3.034,-3.0322,-3.0329,-3.0349,-3.0354,-3.0384,-3.035,-3.0377,-3.0378,-3.0372,-3.0442,-3.0453,-3.0503,-3.042,-3.0421,-3.0422,0,-3.0206,-3.0225,-3.0279,-3.0292,-3.0303,-3.0327,-3.0348,-3.0369,-3.0383,-3.0384,-3.0399,-3.0391,-3.0421,-3.0396,-3.0436,-3.0413,-3.0424,-3.0428,-3.043,-3.0431,-3.0402,-3.0444,-3.052,-3.0527,-3.0433,-3.0432,-3.0432,0,-3.0254,-3.0294,-3.0331,-3.034,-3.0357,-3.0374,-3.0382,-3.0395,-3.0409,-3.0427,-3.0435,-3.0457,-3.0468,-3.0484,-3.0482,-3.0464,-3.0522,-3.0497,-3.0522,-3.0522,-3.0534,-3.0533,-3.0611,-3.0544,-3.0544,-3.0544,-3.0544,0,-3.0319,-3.0352,-3.0353,-3.0375,-3.041,-3.0408,-3.0443,-3.0448,-3.046,-3.0482,-3.0472,-3.0493,-3.049,-3.051,-3.0509,-3.0541,-3.0547,-3.0547,-3.0546,-3.0547,-3.0547,-3.0553,-3.0549,-3.0546,-3.0545,-3.0545,-3.0545,0,-3.0379,-3.0381,-3.042,-3.0432,-3.0436,-3.0462,-3.0472,-3.0492,-3.0495,-3.0523,-3.0529,-3.0533,-3.0556,-3.0556,-3.0583,-3.0582,-3.0621,-3.0617,-3.0616,-3.0614,-3.0639,-3.0636,-3.0722,-3.0733,-3.0661,-3.0662,-3.0662,0,-3.0419,-3.0444,-3.0459,-3.0473,-3.0482,-3.0505,-3.0519,-3.0516,-3.0531,-3.0548,-3.0566,-3.0589,-3.0606,-3.0644,-3.0648,-3.0668,-3.0663,-3.0692,-3.0666,-3.0666,-3.0661,-3.0659,-3.066,-3.0697,-3.0698,-3.0698,-3.0699,0,-3.0489,-3.0489,-3.051,-3.053,-3.0547,-3.0563,-3.0578,-3.059,-3.0589,-3.0606,-3.0629,-3.0643,-3.067,-3.0692,-3.0711,-3.0717,-3.0707,-3.0707,-3.0714,-3.0714,-3.0712,-3.0711,-3.0628,-3.0705,-3.0704,-3.0704,-3.0704,-3.0703,-3.0539,-3.056,-3.0573,-3.0596,-3.0607,-3.062,-3.0639,-3.0644,-3.0664,-3.0686,-3.0683,-3.0709,-3.0721,-3.0745,-3.0754,-3.0773,-3.0763,-3.0773,-3.0775,-3.0777,-3.0779,-3.071,-3.0777,-3.0777,-3.0776,-3.0776,-3.0776,0,-3.0607,-3.0615,-3.0636,-3.0656,-3.0674,-3.0664,-3.0679,-3.0694,-3.0717,-3.073,-3.0747,-3.0773,-3.0794,-3.08,-3.0819,-3.0833,-3.0829,-3.0838,-3.0836,-3.0838,-3.0788,-3.0779,-3.0841,-3.0841,-3.0841,-3.0841,-3.0841,-3.0841,-3.0644,-3.0678,-3.0679,-3.0716,-3.0724,-3.0749,-3.0758,-3.077,-3.078,-3.081,-3.0827,-3.0831,-3.084,-3.086,-3.0878,-3.0879,-3.0885,-3.0896,-3.0895,-3.0848,-3.0841,-3.0835,-3.0827,-3.0898,-3.0898,-3.0943,-3.0943,-3.0944]}]]